George, South Africa

11:41 PM SAST on February 11, 2016 (GMT +0200)
George

Weather History for FAGG - March, 2014

Change the Weather History Date:

Sunday, March 2, 2014

  Actual Average Record
Temperature  
Mean Temperature 72 °F -  
Max Temperature 88 °F 73 °F 88 °F (2014)
Min Temperature 57 °F 57 °F 53 °F (2004)
Cooling Degree Days 8    
Growing Degree Days 22 (Base 50)    
Moisture  
Dew Point 58 °F    
Average Humidity 61    
Maximum Humidity 94    
Minimum Humidity 32    
Precipitation  
Precipitation 0.04 in - - ()
Sea Level Pressure  
Sea Level Pressure 29.81 in    
Wind  
Wind Speed 4 mph ()    
Max Wind Speed 12 mph    
Max Gust Speed -    
Visibility 8.5 miles    
Events      
Averages and records for this station are not official NWS values.
T = Trace of Precipitation, MM = Missing Value Source: Averaged Metar Reports

Daily Weather History Graph

Daily Weather History Graph

Search for Another Location

Airport or City:

Trip Planner

Search our weather history database for the weather conditions in past years. The results will help you decide how hot, cold, wet, or windy it might be!

Date:

Astronomy

Mar. 02, 2014 Rise Set
Actual Time 6:18 AM SAST 7:05 PM SAST
Civil Twilight 5:53 AM SAST 7:31 PM SAST
Nautical Twilight 5:23 AM SAST 8:01 PM SAST
Astronomical Twilight 4:52 AM SAST 8:31 PM SAST
Moon 7:24 AM SAST (3/2) 7:40 PM SAST (3/2)
Length of Visible Light 13h 37m
Length of Day
12h 46m
New Moon, 2% of the Moon is Illuminated
Mar 2
New Moon
Mar 8
First Quarter
Mar 16
Full
Mar 24
Last Quarter
Mar 30
New

Hourly Weather History & Observations

Time (SAST) Temp. Heat Index Dew Point Humidity Pressure Visibility Wind Dir Wind Speed Gust Speed Precip Events Conditions
2:00 AM 60 °F - 53 °F 71% 29.84 in 25 mi NNE 3.5 mph - -  
5:00 AM 57 °F - 54 °F 84% 29.80 in 12 mi WNW 4.6 mph - -  
5:00 AM 57.2 °F - 53.6 °F 88% 29.77 in - WNW 4.6 mph - N/A   Clear
6:00 AM 59.0 °F - 51.8 °F 77% 29.80 in - WNW 4.6 mph - N/A   Clear
7:00 AM 59.0 °F - 53.6 °F 82% 29.80 in - NW 4.6 mph - N/A   Clear
8:00 AM 66 °F - 55 °F 60% 29.82 in 12 mi WNW 4.6 mph - -  
8:00 AM 66.2 °F - 57.2 °F 73% 29.80 in - WNW 4.6 mph - N/A   Clear
9:00 AM 73.4 °F - 57.2 °F 57% 29.80 in - Variable 2.3 mph - N/A   Clear
10:00 AM 78.8 °F - 57.2 °F 47% 29.77 in - Variable 1.2 mph - N/A   Clear
11:00 AM 79 °F - 60 °F 43% 29.78 in 12 mi South 5.8 mph - -   Clear
11:00 AM 78.8 °F - 60.8 °F 54% 29.77 in - Variable 5.8 mph - N/A   Clear
12:00 PM 78.8 °F - 59.0 °F 51% 29.74 in - South 8.1 mph - N/A   Clear
1:00 PM 82.4 °F 82.0 °F 57.2 °F 42% 29.74 in - SSW 4.6 mph - N/A   Clear
2:00 PM 87 °F - 61 °F 32% 29.73 in 12 mi SSE 4.6 mph - -   Clear
2:00 PM 87.8 °F 87.1 °F 59.0 °F 38% 29.71 in - Variable 4.6 mph - N/A   Clear
3:00 PM 86.0 °F 84.9 °F 57.2 °F 37% 29.71 in 6.2 mi SSW 11.5 mph - N/A   Partly Cloudy
4:00 PM 77.0 °F - 57.2 °F 50% 29.74 in 6.2 mi SSE 10.4 mph - N/A   Partly Cloudy
5:00 PM 78 °F - 56 °F 36% 29.79 in 12 mi South 3.5 mph - -   Scattered Clouds
5:00 PM 77.0 °F - 57.2 °F 50% 29.77 in 6.2 mi South 3.5 mph - N/A   Partly Cloudy
6:00 PM 73.4 °F - 55.4 °F 53% 29.83 in 6.2 mi South 4.6 mph - N/A   Partly Cloudy
7:00 PM 69.8 °F - 57.2 °F 64% 29.86 in 6.2 mi South 3.5 mph - N/A   Scattered Clouds
8:00 PM 71 °F - 59 °F 57% 29.90 in 12 mi SW 8.1 mph - -   Mostly Cloudy
8:00 PM 69.8 °F - 59.0 °F 68% 29.89 in 6.2 mi SSW 4.6 mph - N/A   Mostly Cloudy
9:00 PM 66.2 °F - 62.6 °F 88% 29.92 in 5.6 mi SSW 8.1 mph - N/A   Mostly Cloudy
10:00 PM 66.2 °F - 62.6 °F 88% 29.95 in 6.2 mi WSW 5.8 mph - N/A   Mostly Cloudy
11:00 PM 64.4 °F - 62.6 °F 94% 29.95 in 6.2 mi WNW 4.6 mph - N/A   Mostly Cloudy